Location: Newark
(48.5667°N, 7.8167°E)
Time: 12:14:14
(UTC+00:00)

ISS - Pass Details

Date: 21 September 2021
Orbit: 418 x 423 km, 51.6° (Epoch: 19 October)

Event Time Altitude Azimuth Distance (km) Brightness Sun altitude
Rises 19:37:02 0° 268° (W) 2,363 1.1 -21.3°
Reaches altitude 10° 19:39:10 10° 273° (W) 1,501 0.0 -21.6°
Enters shadow 19:42:18 52° 339° (NNW) 532 -3.1 -22.1°
